Location: C?rpini?
(45.8833°N, 23.0333°E)
Time: 00:40:07
(UTC+00:00)

Daily predictions for brighter satellites

Satellite Brightness Start Highest point End
(mag) Time Altitude Azimuth Time Altitude Azimuth Time Altitude Azimuth
Cosmos 1842 Rocket 4.3 00:04:03 10° NNW 00:08:06 35° W 00:08:34 34° WSW
ADEOS II 3.5 00:04:02 10° NE 00:08:38 30° E 00:11:51 17° SE
Helios 1A Rocket 2.8 00:09:25 56° WSW 00:09:43 58° W 00:13:32 10° NNW
Cosmos 1302 Rocket 4.0 00:08:14 40° S 00:10:06 76° ESE 00:15:22 10° NNE
H-2A R/B 4.2 00:06:40 10° NNE 00:10:32 42° E 00:11:51 32° SE
Resurs 1-4 Rocket 2.7 00:05:31 10° NNE 00:10:42 48° E 00:13:21 26° SSE
Cosmos 968 Rocket 3.6 00:06:48 10° NNW 00:11:55 56° WSW 00:13:29 40° SSW
IDEFIX/ARIANE 42P 2.6 00:08:44 10° NNE 00:13:55 71° ESE 00:16:09 34° S
Cosmos 2344 3.4 00:13:34 30° SSW 00:17:38 79° SE 00:24:58 10° NE
Cosmos 2369 Rocket 4.4 00:16:08 10° W 00:19:45 17° NW 00:23:24 10° N
Cosmos 2227 Rocket 3.6 00:19:12 10° NNW 00:24:28 37° NE 00:29:40 10° ESE
CENTAUR R/B 3.6 00:16:59 10° NW 00:24:58 45° WSW 00:30:38 22° S
Cosmos 1697 Rocket 3.9 00:24:43 18° SSE 00:28:01 33° ESE 00:33:00 10° NE
SL-8 R/B 4.1 00:23:46 10° W 00:28:33 64° N 00:33:20 10° E
Cosmos 2061 Rocket 4.4 00:26:14 29° SW 00:29:03 48° WNW 00:35:04 10° N
Cosmos 44 Rocket 4.5 00:26:14 20° W 00:29:08 37° NW 00:33:49 10° NNE
Meteor 1-5 Rocket 4.1 00:27:46 30° S 00:30:33 81° E 00:35:55 10° NNE
BREEZE-M DEB (TANK) 4.3 00:28:18 18° W 00:31:18 73° N 00:45:24 10° ENE
Tsikada Rocket 4.5 00:27:16 10° NNW 00:33:06 43° W 00:35:46 28° SW
Cosmos 1743 3.1 00:33:06 32° SSE 00:34:28 52° E 00:38:03 10° NNE
Cosmos 967 Rocket 4.4 00:30:35 10° NW 00:36:55 69° WSW 00:43:10 10° SSE
Cosmos 2297 Rocket 2.2 00:34:26 10° NNW 00:40:08 86° ENE 00:45:49 10° SSE
Cosmos 1992 Rocket 4.0 00:40:01 29° S 00:42:44 75° ESE 00:47:56 10° NNE
Meteor 2-4 Rocket 3.6 00:40:13 10° NNW 00:45:36 74° W 00:49:15 22° S
CZ-2C R/B 2.8 00:41:23 10° NNE 00:46:08 88° WNW 00:48:40 28° SSW
USA 59 Rocket 1.6 00:50:38 12° WNW 00:52:17 16° NW 00:54:19 10° N
COSMOS 2441 4.4 00:48:24 10° NNE 00:53:20 90° WNW 00:56:14 25° SSW
USA 238 DEB 4.2 00:47:24 10° NW 00:54:47 75° NE 01:02:44 10° SE
USA 238 4.2 00:47:31 10° NW 00:54:52 75° NE 01:02:46 10° SE
Cosmos 1656 3.9 00:57:49 24° SW 01:01:02 57° WNW 01:06:30 10° NNE
Cosmos 1980 Rocket 3.7 00:56:53 10° SSE 01:01:46 30° ESE 01:06:38 10° NE
Lacrosse 5 rocket 3.9 01:00:57 10° NW 01:03:43 18° N 01:06:33 10° NE
Cosmos 1707 4.2 01:00:40 10° N 01:04:01 33° ENE 01:07:21 10° SE
USA 32 4.0 01:01:42 10° N 01:06:55 69° W 01:10:53 17° S
Cosmos 482 Debris 3.1 01:05:34 10° WNW 01:08:32 54° SW 01:10:48 10° SE
CZ-2C R/B 3.3 01:05:56 22° SSW 01:09:03 40° W 01:14:20 10° NNW
Cosmos 1626 2.8 01:07:05 10° NNW 01:09:49 27° W 01:10:11 26° WSW
Cosmos 1766 Rocket 3.5 01:07:18 23° SSW 01:10:03 81° W 01:14:29 10° N
DELTA 2 R/B (1) 3.9 01:07:00 19° WSW 01:10:43 44° S 01:15:59 10° ESE
MSX 4.4 01:08:26 10° N 01:13:54 46° WNW 01:17:46 19° SW
Meteor 1-18 Rocket 4.4 01:08:57 10° NNW 01:14:24 54° W 01:18:54 16° SSW
SJ 16-02 2.9 01:11:46 10° NW 01:14:40 17° W 01:15:15 17° WSW
ATLAS 5 CENTAUR R/B 2.8 01:10:15 10° NNW 01:14:59 57° NE 01:20:52 10° SE
Cosmos 1400 Rocket 3.9 01:12:22 10° N 01:16:07 44° ENE 01:19:53 10° SSE
SL-24 R/B 4.1 01:12:35 10° N 01:16:48 64° WNW 01:19:35 21° SSW
Cosmos 1674 2.3 01:14:14 10° N 01:17:37 89° E 01:20:23 15° S
CZ-2D R/B 2.6 01:15:00 10° N 01:19:58 47° WNW 01:23:30 19° SW
Cosmos 1726 1.6 01:19:31 29° SSW 01:20:50 60° W 01:23:49 10° N
Meteor 1-28 Rocket 3.1 01:20:09 17° S 01:22:48 61° W 01:26:24 10° NNW
ALOS 2.2 01:19:54 10° NNE 01:24:33 88° ESE 01:28:24 15° SSW
Cosmos 1328 Rocket 3.9 01:24:12 10° NNW 01:28:29 49° W 01:31:56 15° SSW
AQUA 3.9 01:24:25 10° N 01:29:07 67° WNW 01:32:50 16° SSW
Tiangong -1.5 01:28:35 24° SW 01:29:51 35° S 01:32:44 10° ESE
Cosmos 371 Rocket 3.3 01:26:45 10° NNW 01:31:35 64° WSW 01:36:21 10° S
NOSS 3-4 (C) 3.2 01:28:33 17° SW 01:32:52 86° SE 01:38:55 10° NE
NOSS 3-4 (A) 3.2 01:29:02 17° SW 01:33:17 88° SE 01:39:16 10° NE
Cosmos 1536 2.9 01:30:24 12° S 01:34:06 74° E 01:38:04 10° NNE
USA 234 3.7 01:28:29 10° NE 01:34:54 59° NNW 01:41:18 10° WSW
Cosmos 2219 3.6 01:30:21 10° NNW 01:36:01 69° ENE 01:41:42 10° SE
FENGYUN 3A 4.1 01:33:19 10° N 01:38:30 47° WNW 01:42:54 14° SW
NOSS 3-2 (C) 4.5 01:31:54 10° NW 01:39:05 43° WSW 01:47:16 10° S
Lacrosse 5 2.8 01:35:17 10° WNW 01:39:27 26° SW 01:43:36 10° S
Cosmos 1500 Rocket 4.4 01:36:25 10° SSE 01:40:37 50° E 01:44:52 10° NNE
Nadezhda 4 Rocket 4.2 01:36:52 10° NNW 01:42:45 49° W 01:48:34 10° SSW
Cosmos 1867 4.0 01:38:58 10° NW 01:44:03 40° WSW 01:49:06 10° S
Cosmos 2034 Rocket 4.2 01:39:11 12° SSW 01:45:05 62° WNW 01:51:26 10° N
Cosmos 2369 4.5 01:40:30 10° S 01:45:58 50° ESE 01:51:29 10° NE
SL-16 R/B 2.7 01:40:31 10° S 01:46:31 52° W 01:52:32 10° NNW
Meteor 1-14 Rocket 4.5 01:41:06 12° SSW 01:46:36 63° WNW 01:52:31 10° N
Cosmos 1733 3.2 01:44:30 10° S 01:47:57 68° E 01:51:29 10° NNE
ADEOS II 2.8 01:43:27 10° N 01:48:19 40° WNW 01:52:43 12° SW
Meteor 2-10 4.3 01:45:01 10° S 01:50:03 66° E 01:55:03 10° NNE
Resurs 1-4 Rocket 3.4 01:45:50 10° N 01:50:12 26° WNW 01:54:25 11° WSW
Cosmos 1340 2.7 01:48:41 15° SSW 01:51:17 47° WNW 01:54:32 10° N
CZ-4 R/B 4.4 01:46:39 10° NNE 01:51:34 60° ESE 01:56:22 10° S
IDEFIX/ARIANE 42P 4.3 01:49:26 10° NNW 01:52:52 18° WNW 01:56:17 10° W
KORONAS-FOTON 4.1 01:50:19 10° NNW 01:53:45 42° W 01:57:09 10° SSW
RESURS DK-1 4.2 01:51:26 10° SSE 01:54:49 26° ESE 01:58:14 10° NE
ATLAS CENTAUR R/B 4.1 01:49:24 10° WSW 01:55:46 59° NNW 02:06:17 10° NE
Meteor 1-4 Rocket 3.6 01:54:41 10° N 01:57:24 36° ENE 02:00:04 10° SE
Cosmos 1503 Rocket 4.0 01:52:24 10° NNW 01:57:32 67° WSW 02:02:39 10° S
SAR-Lupe-4 3.6 01:54:35 10° N 01:58:07 68° WNW 02:01:38 10° SSW
H-2A R/B 3.9 01:55:37 10° NE 01:59:45 26° E 02:03:51 10° SSE
Cosmos 2263 Rocket 2.4 01:54:15 10° NNW 01:59:53 78° ENE 02:05:31 10° SSE
UNK 4.0 01:58:28 10° S 02:02:50 47° W 02:07:14 10° NNW
Meteor 2-9 Rocket 4.4 01:59:08 10° S 02:04:55 83° E 02:10:36 10° NNE
Cosmos 1805 Rocket 3.7 02:01:44 10° S 02:06:10 79° E 02:10:37 10° NNE
Cosmos 2026 Rocket 4.1 02:00:15 10° NNW 02:06:26 62° W 02:12:39 10° S
Cosmos 2227 Rocket 2.7 02:03:19 10° NW 02:08:29 38° WSW 02:13:38 10° S
Cosmos 1805 3.7 02:07:08 10° S 02:10:44 59° E 02:14:23 10° NNE
SL-8 R/B 3.7 02:06:20 10° WNW 02:11:08 77° SSW 02:15:55 10° ESE
Cosmos 1356 Rocket 3.2 02:07:16 10° NNW 02:11:12 87° W 02:15:06 10° S
Cosmos 1697 Rocket 3.4 02:06:34 10° SW 02:11:51 41° NW 02:17:10 10° NNE
USA-17 4.3 02:10:43 10° NW 02:13:50 68° SW 02:17:32 10° SSE
Atlas Centaur 2 4.4 02:10:58 10° SSW 02:16:33 20° SSE 02:21:46 10° SE
CZ-2C R/B 2.5 02:12:57 10° NNE 02:17:53 86° E 02:22:57 10° SSW
METEOR-M 4.3 02:14:25 10° N 02:19:43 64° WNW 02:24:58 10° SSW
Cosmos 1408 Rocket 4.0 02:16:09 10° SSW 02:20:21 46° WNW 02:24:33 10° N
Cosmos 1634 Rocket 4.1 02:16:43 10° SSW 02:22:48 60° WNW 02:28:54 10° N
Cosmos 2297 Rocket 3.8 02:20:20 10° WNW 02:23:21 15° W 02:26:23 10° SW
SL-14 R/B 3.6 02:19:48 10° N 02:23:47 71° E 02:27:43 10° SSE
Envisat 3.4 02:21:20 10° N 02:26:13 50° WNW 02:31:07 10° SW
